Time,TemperatureF,DewpointF,PressureIn,WindDirection,WindDirectionDegrees,WindSpeedMPH,WindSpeedGustMPH,Humidity,HourlyPrecipIn,Conditions,Clouds,dailyrainin,SoftwareType,DateUTC
2013-01-02 00:00:00,30.3,16.9,30.01,West,270,0.0,0.0,57,0.00,,OVC,0.00,VWS V14.00,2013-01-02 05:00:00,
2013-01-02 00:01:00,30.3,16.9,30.01,West,270,0.0,0.0,57,0.00,,OVC,0.00,VWS V14.00,2013-01-02 05:01:00,
2013-01-02 00:02:00,30.3,16.9,30.01,NNE,22,0.0,0.0,57,0.00,,OVC,0.00,VWS V14.00,2013-01-02 05:02:00,
2013-01-02 00:07:00,30.2,16.8,30.00,NNW,338,0.0,0.0,57,0.00,,OVC,0.00,VWS V14.00,2013-01-02 05:07:00,
2013-01-02 00:12:00,30.0,16.6,30.01,NNE,22,0.0,0.0,57,0.00,,OVC,0.00,VWS V14.00,2013-01-02 05:12:00,
2013-01-02 00:17:00,30.0,16.6,30.01,North,0,0.0,0.0,57,0.00,,OVC,0.00,VWS V14.00,2013-01-02 05:17:00,
2013-01-02 00:22:00,30.0,15.8,30.00,North,0,2.6,2.6,55,0.00,,OVC,0.00,VWS V14.00,2013-01-02 05:22:00,
2013-01-02 00:27:00,30.0,15.8,29.99,North,0,6.4,6.4,55,0.00,,OVC,0.00,VWS V14.00,2013-01-02 05:27:00,
2013-01-02 00:32:00,29.8,15.6,30.01,WNW,292,0.0,0.0,55,0.00,,OVC,0.00,VWS V14.00,2013-01-02 05:32:00,
2013-01-02 00:37:00,29.8,15.6,30.00,NW,315,0.0,0.0,55,0.00,,OVC,0.00,VWS V14.00,2013-01-02 05:37:00,
2013-01-02 00:42:00,29.6,15.4,30.00,NNW,338,0.0,0.0,55,0.00,,OVC,0.00,VWS V14.00,2013-01-02 05:42:00,
2013-01-02 00:47:00,29.4,14.8,30.00,North,0,1.1,1.1,54,0.00,,OVC,0.00,VWS V14.00,2013-01-02 05:47:00,
2013-01-02 00:52:00,29.4,14.8,29.99,NNE,22,0.0,4.6,54,0.00,,OVC,0.00,VWS V14.00,2013-01-02 05:52:00,
2013-01-02 00:57:00,29.3,14.3,29.99,NNW,338,5.5,5.5,53,0.00,,OVC,0.00,VWS V14.00,2013-01-02 05:57:00,
2013-01-02 01:02:00,29.3,14.3,30.00,NE,45,2.9,2.9,53,0.00,,OVC,0.00,VWS V14.00,2013-01-02 06:02:00,
2013-01-02 01:07:00,29.1,13.7,29.99,WNW,292,2.9,2.9,52,0.00,,OVC,0.00,VWS V14.00,2013-01-02 06:07:00,
2013-01-02 01:12:00,29.1,13.7,29.99,NNE,22,2.2,2.2,52,0.00,,OVC,0.00,VWS V14.00,2013-01-02 06:12:00,
2013-01-02 01:17:00,28.9,13.9,29.99,NNE,22,1.3,1.3,53,0.00,,OVC,0.00,VWS V14.00,2013-01-02 06:17:00,
2013-01-02 01:22:00,28.9,13.9,29.99,North,0,2.2,2.2,53,0.00,,OVC,0.00,VWS V14.00,2013-01-02 06:22:00,
2013-01-02 01:27:00,28.7,13.3,29.99,NNE,22,6.0,6.0,52,0.00,,OVC,0.00,VWS V14.00,2013-01-02 06:27:00,
2013-01-02 01:32:00,28.7,13.8,29.99,North,0,0.0,0.0,53,0.00,,OVC,0.00,VWS V14.00,2013-01-02 06:32:00,
2013-01-02 01:37:00,28.5,14.0,29.99,WNW,292,0.0,0.0,54,0.00,,OVC,0.00,VWS V14.00,2013-01-02 06:37:00,
2013-01-02 01:42:00,28.5,14.0,29.99,NNW,338,0.8,0.8,54,0.00,,OVC,0.00,VWS V14.00,2013-01-02 06:42:00,
2013-01-02 01:47:00,28.5,14.0,30.00,North,0,0.0,0.0,54,0.00,,OVC,0.00,VWS V14.00,2013-01-02 06:47:00,
2013-01-02 01:52:00,28.5,14.4,30.00,North,0,0.0,0.0,55,0.00,,OVC,0.00,VWS V14.00,2013-01-02 06:52:00,
2013-01-02 01:57:00,28.5,14.4,30.00,WNW,292,0.0,0.0,55,0.00,,OVC,0.00,VWS V14.00,2013-01-02 06:57:00,
2013-01-02 02:02:00,28.2,13.7,30.00,North,0,0.0,0.0,54,0.00,,OVC,0.00,VWS V14.00,2013-01-02 07:02:00,
2013-01-02 02:07:00,28.2,13.7,30.00,WNW,292,0.0,0.0,54,0.00,,OVC,0.00,VWS V14.00,2013-01-02 07:07:00,
2013-01-02 02:12:00,28.2,13.7,30.01,West,270,0.0,0.0,54,0.00,,OVC,0.00,VWS V14.00,2013-01-02 07:12:00,
2013-01-02 02:17:00,28.2,14.1,30.01,WNW,292,0.0,0.0,55,0.00,,OVC,0.00,VWS V14.00,2013-01-02 07:17:00,
2013-01-02 02:22:00,28.2,13.7,30.01,NW,315,0.0,0.0,54,0.00,,OVC,0.00,VWS V14.00,2013-01-02 07:22:00,
2013-01-02 02:27:00,28.2,13.7,30.01,North,0,0.0,0.0,54,0.00,,OVC,0.00,VWS V14.00,2013-01-02 07:27:00,
2013-01-02 02:32:00,28.0,13.5,30.01,North,0,0.6,0.6,54,0.00,,OVC,0.00,VWS V14.00,2013-01-02 07:32:00,
2013-01-02 02:37:00,28.0,13.5,30.01,West,270,0.0,0.0,54,0.00,,OVC,0.00,VWS V14.00,2013-01-02 07:37:00,
2013-01-02 02:42:00,28.0,13.9,30.02,NNW,338,0.0,0.0,55,0.00,,OVC,0.00,VWS V14.00,2013-01-02 07:42:00,
2013-01-02 02:47:00,28.0,13.5,30.03,West,270,0.8,2.2,54,0.00,,OVC,0.00,VWS V14.00,2013-01-02 07:47:00,
2013-01-02 02:52:00,28.0,13.5,30.02,NNE,22,8.9,8.9,54,0.00,,OVC,0.00,VWS V14.00,2013-01-02 07:52:00,
2013-01-02 02:57:00,27.8,13.3,30.02,NNW,338,0.0,0.0,54,0.00,,OVC,0.00,VWS V14.00,2013-01-02 07:57:00,
2013-01-02 03:02:00,27.6,13.6,30.01,NNE,22,0.0,0.0,55,0.00,,OVC,0.00,VWS V14.00,2013-01-02 08:02:00,
2013-01-02 03:07:00,27.6,13.6,30.01,NNE,22,0.0,0.0,55,0.00,,OVC,0.00,VWS V14.00,2013-01-02 08:07:00,
2013-01-02 03:12:00,27.6,14.0,30.01,NNW,338,0.0,0.0,56,0.00,,OVC,0.00,VWS V14.00,2013-01-02 08:12:00,
2013-01-02 03:17:00,27.6,14.0,30.01,NNE,22,0.0,0.0,56,0.00,,OVC,0.00,VWS V14.00,2013-01-02 08:17:00,
2013-01-02 03:22:00,27.6,14.0,30.01,NNE,22,0.0,0.0,56,0.00,,OVC,0.00,VWS V14.00,2013-01-02 08:22:00,
2013-01-02 03:27:00,27.5,13.9,30.01,North,0,0.0,0.0,56,0.00,,OVC,0.00,VWS V14.00,2013-01-02 08:27:00,
2013-01-02 03:32:00,27.5,13.9,30.01,NNE,22,0.0,0.0,56,0.00,,OVC,0.00,VWS V14.00,2013-01-02 08:32:00,
2013-01-02 03:37:00,27.5,14.3,30.01,North,0,2.2,2.2,57,0.00,,OVC,0.00,VWS V14.00,2013-01-02 08:37:00,
2013-01-02 03:42:00,27.5,14.7,30.01,NNE,22,0.0,0.0,58,0.00,,OVC,0.00,VWS V14.00,2013-01-02 08:42:00,
2013-01-02 03:47:00,27.3,14.5,30.01,NNW,338,1.3,1.3,58,0.00,,OVC,0.00,VWS V14.00,2013-01-02 08:47:00,
2013-01-02 03:52:00,27.3,14.5,30.01,NNE,22,1.7,1.7,58,0.00,,OVC,0.00,VWS V14.00,2013-01-02 08:52:00,
2013-01-02 03:57:00,27.1,14.3,30.02,NNE,22,0.0,0.0,58,0.00,,OVC,0.00,VWS V14.00,2013-01-02 08:57:00,
2013-01-02 04:02:00,27.1,14.3,30.01,NNW,338,0.0,0.0,58,0.00,,OVC,0.00,VWS V14.00,2013-01-02 09:02:00,
2013-01-02 04:07:00,27.1,14.3,30.01,NNE,22,1.1,1.1,58,0.00,,OVC,0.00,VWS V14.00,2013-01-02 09:07:00,
2013-01-02 04:12:00,27.1,14.3,30.01,North,0,0.0,0.0,58,0.00,,OVC,0.00,VWS V14.00,2013-01-02 09:12:00,
2013-01-02 04:17:00,27.1,14.3,30.02,WNW,292,0.0,0.0,58,0.00,,OVC,0.00,VWS V14.00,2013-01-02 09:17:00,
2013-01-02 04:22:00,26.9,14.1,30.02,North,0,0.0,0.0,58,0.00,,OVC,0.00,VWS V14.00,2013-01-02 09:22:00,
2013-01-02 04:27:00,26.7,13.9,30.02,NNE,22,0.0,0.0,58,0.00,,OVC,0.00,VWS V14.00,2013-01-02 09:27:00,
2013-01-02 04:32:00,26.7,14.3,30.02,NNE,22,3.1,3.1,59,0.00,,OVC,0.00,VWS V14.00,2013-01-02 09:32:00,
2013-01-02 04:37:00,26.6,14.2,30.02,NNE,22,0.0,0.0,59,0.00,,OVC,0.00,VWS V14.00,2013-01-02 09:37:00,
2013-01-02 04:42:00,26.4,13.6,30.01,North,0,0.0,2.9,58,0.00,,OVC,0.00,VWS V14.00,2013-01-02 09:42:00,
2013-01-02 04:47:00,26.4,13.6,30.01,NE,45,0.0,0.0,58,0.00,,OVC,0.00,VWS V14.00,2013-01-02 09:47:00,
2013-01-02 04:52:00,26.4,13.6,30.01,NNE,22,1.3,1.3,58,0.00,,OVC,0.00,VWS V14.00,2013-01-02 09:52:00,
2013-01-02 04:57:00,26.2,13.4,30.02,North,0,1.1,1.1,58,0.00,,OVC,0.00,VWS V14.00,2013-01-02 09:57:00,
2013-01-02 05:02:00,26.2,13.4,30.02,North,0,0.0,0.0,58,0.00,,OVC,0.00,VWS V14.00,2013-01-02 10:02:00,
2013-01-02 05:07:00,26.2,13.4,30.02,NE,45,0.0,0.0,58,0.00,,OVC,0.00,VWS V14.00,2013-01-02 10:07:00,
2013-01-02 05:12:00,26.2,13.1,30.02,NNE,22,0.0,0.0,57,0.00,,OVC,0.00,VWS V14.00,2013-01-02 10:12:00,
2013-01-02 05:17:00,26.0,13.3,30.03,North,0,0.0,0.0,58,0.00,,OVC,0.00,VWS V14.00,2013-01-02 10:17:00,
2013-01-02 05:22:00,26.0,13.3,30.03,North,0,0.0,0.0,58,0.00,,OVC,0.00,VWS V14.00,2013-01-02 10:22:00,
2013-01-02 05:27:00,25.8,12.7,30.02,NNE,22,1.5,1.5,57,0.00,,OVC,0.00,VWS V14.00,2013-01-02 10:27:00,
2013-01-02 05:32:00,25.8,13.1,30.02,North,0,0.0,0.0,58,0.00,,OVC,0.00,VWS V14.00,2013-01-02 10:32:00,
2013-01-02 05:37:00,25.7,13.0,30.03,NNE,22,0.0,0.0,58,0.00,,OVC,0.00,VWS V14.00,2013-01-02 10:37:00,
2013-01-02 05:42:00,25.7,13.0,30.03,WNW,292,1.1,1.1,58,0.00,,OVC,0.00,VWS V14.00,2013-01-02 10:42:00,
2013-01-02 05:47:00,25.7,12.6,30.03,North,0,0.0,0.0,57,0.00,,OVC,0.00,VWS V14.00,2013-01-02 10:47:00,
2013-01-02 05:52:00,25.7,13.0,30.03,NNW,338,6.0,6.0,58,0.00,,OVC,0.00,VWS V14.00,2013-01-02 10:52:00,
2013-01-02 05:57:00,25.7,12.6,30.03,NW,315,0.0,0.0,57,0.00,,OVC,0.00,VWS V14.00,2013-01-02 10:57:00,
2013-01-02 06:02:00,25.7,12.6,30.03,NNW,338,0.0,0.0,57,0.00,,OVC,0.00,VWS V14.00,2013-01-02 11:02:00,
2013-01-02 06:07:00,25.7,12.6,30.03,NNE,22,1.5,1.5,57,0.00,,OVC,0.00,VWS V14.00,2013-01-02 11:07:00,
2013-01-02 06:12:00,25.5,12.4,30.03,North,0,0.6,0.6,57,0.00,,OVC,0.00,VWS V14.00,2013-01-02 11:12:00,
2013-01-02 06:17:00,25.5,12.4,30.03,NNW,338,0.0,0.0,57,0.00,,OVC,0.00,VWS V14.00,2013-01-02 11:17:00,
2013-01-02 06:22:00,25.5,12.4,30.03,North,0,0.0,0.0,57,0.00,,OVC,0.00,VWS V14.00,2013-01-02 11:22:00,
2013-01-02 06:27:00,25.5,12.4,30.03,NNE,22,0.0,0.0,57,0.00,,OVC,0.00,VWS V14.00,2013-01-02 11:27:00,
2013-01-02 06:32:00,25.5,12.4,30.03,WNW,292,0.0,0.0,57,0.00,,OVC,0.00,VWS V14.00,2013-01-02 11:32:00,
2013-01-02 06:37:00,25.5,12.4,30.03,NNW,338,0.0,0.0,57,0.00,,OVC,0.00,VWS V14.00,2013-01-02 11:37:00,
2013-01-02 06:42:00,25.3,12.2,30.03,North,0,0.0,0.0,57,0.00,,OVC,0.00,VWS V14.00,2013-01-02 11:42:00,
2013-01-02 06:47:00,25.3,12.2,30.03,NNE,22,0.0,0.0,57,0.00,,OVC,0.00,VWS V14.00,2013-01-02 11:47:00,
2013-01-02 06:52:00,25.3,12.2,30.03,West,270,0.0,0.0,57,0.00,,OVC,0.00,VWS V14.00,2013-01-02 11:52:00,
2013-01-02 06:57:00,25.3,12.2,30.03,NNE,22,0.0,0.0,57,0.00,,OVC,0.00,VWS V14.00,2013-01-02 11:57:00,
2013-01-02 07:02:00,25.3,12.6,30.03,NNW,338,0.0,0.0,58,0.00,,OVC,0.00,VWS V14.00,2013-01-02 12:02:00,
2013-01-02 07:07:00,25.3,12.2,30.03,North,0,0.0,0.0,57,0.00,,OVC,0.00,VWS V14.00,2013-01-02 12:07:00,
2013-01-02 07:12:00,25.3,12.2,30.04,North,0,0.0,0.0,57,0.00,,OVC,0.00,VWS V14.00,2013-01-02 12:12:00,
2013-01-02 07:17:00,25.3,12.6,30.04,WNW,292,0.0,0.0,58,0.00,,OVC,0.00,VWS V14.00,2013-01-02 12:17:00,
2013-01-02 07:22:00,25.1,12.4,30.04,WNW,292,0.0,0.0,58,0.00,,OVC,0.00,VWS V14.00,2013-01-02 12:22:00,
2013-01-02 07:27:00,25.1,12.4,30.04,NNW,338,0.0,0.0,58,0.00,,OVC,0.00,VWS V14.00,2013-01-02 12:27:00,
2013-01-02 07:32:00,25.3,12.2,30.04,North,0,0.0,0.0,57,0.00,,OVC,0.00,VWS V14.00,2013-01-02 12:32:00,
2013-01-02 07:37:00,25.3,12.6,30.05,NNW,338,0.0,0.0,58,0.00,,OVC,0.00,VWS V14.00,2013-01-02 12:37:00,
2013-01-02 07:42:00,25.3,12.6,30.05,North,0,0.0,0.0,58,0.00,,OVC,0.00,VWS V14.00,2013-01-02 12:42:00,
2013-01-02 07:47:00,25.3,12.6,30.05,North,0,2.0,2.0,58,0.00,,OVC,0.00,VWS V14.00,2013-01-02 12:47:00,
2013-01-02 07:52:00,25.5,12.8,30.05,WNW,292,0.0,0.0,58,0.00,,OVC,0.00,VWS V14.00,2013-01-02 12:52:00,
2013-01-02 07:57:00,25.5,12.8,30.06,WNW,292,0.0,0.0,58,0.00,,OVC,0.00,VWS V14.00,2013-01-02 12:57:00,
2013-01-02 08:02:00,25.8,13.1,30.06,WNW,292,0.0,0.0,58,0.00,,OVC,0.00,VWS V14.00,2013-01-02 13:02:00,
2013-01-02 08:07:00,26.2,13.1,30.06,WNW,292,0.0,0.0,57,0.00,,OVC,0.00,VWS V14.00,2013-01-02 13:07:00,
2013-01-02 08:12:00,26.2,13.1,30.06,NNE,22,0.0,0.0,57,0.00,,OVC,0.00,VWS V14.00,2013-01-02 13:12:00,
2013-01-02 08:17:00,26.4,13.2,30.06,West,270,0.0,0.0,57,0.00,,OVC,0.00,VWS V14.00,2013-01-02 13:17:00,
2013-01-02 08:22:00,26.4,13.2,30.06,West,270,0.0,0.0,57,0.00,,OVC,0.00,VWS V14.00,2013-01-02 13:22:00,
2013-01-02 08:27:00,26.7,13.5,30.07,North,0,0.0,0.0,57,0.00,,OVC,0.00,VWS V14.00,2013-01-02 13:27:00,
2013-01-02 08:32:00,26.9,13.7,30.07,WNW,292,0.0,0.0,57,0.00,,OVC,0.00,VWS V14.00,2013-01-02 13:32:00,
2013-01-02 08:37:00,27.1,13.9,30.07,WNW,292,0.0,0.0,57,0.00,,OVC,0.00,VWS V14.00,2013-01-02 13:37:00,
2013-01-02 08:42:00,27.5,13.9,30.08,North,0,0.0,0.0,56,0.00,,OVC,0.00,VWS V14.00,2013-01-02 13:42:00,
2013-01-02 08:47:00,27.8,14.2,30.08,NNW,338,0.0,0.0,56,0.00,,OVC,0.00,VWS V14.00,2013-01-02 13:47:00,
2013-01-02 08:52:00,28.0,13.9,30.08,NNE,22,0.0,0.0,55,0.00,,OVC,0.00,VWS V14.00,2013-01-02 13:52:00,
2013-01-02 08:57:00,28.2,14.1,30.08,North,0,0.0,0.0,55,0.00,,OVC,0.00,VWS V14.00,2013-01-02 13:57:00,
2013-01-02 09:02:00,28.5,14.0,30.08,NNE,22,0.0,0.0,54,0.00,,OVC,0.00,VWS V14.00,2013-01-02 14:02:00,
2013-01-02 09:07:00,28.7,14.6,30.08,West,270,0.0,0.0,55,0.00,,OVC,0.00,VWS V14.00,2013-01-02 14:07:00,
2013-01-02 09:12:00,29.1,15.0,30.09,NNW,338,0.0,0.0,55,0.00,,OVC,0.00,VWS V14.00,2013-01-02 14:12:00,
2013-01-02 09:17:00,29.8,15.6,30.08,NW,315,0.0,0.0,55,0.00,,OVC,0.00,VWS V14.00,2013-01-02 14:17:00,
2013-01-02 09:22:00,30.0,15.4,30.08,WNW,292,0.0,0.0,54,0.00,,OVC,0.00,VWS V14.00,2013-01-02 14:22:00,
2013-01-02 09:27:00,30.3,15.7,30.09,North,0,0.0,0.0,54,0.00,,OVC,0.00,VWS V14.00,2013-01-02 14:27:00,
2013-01-02 09:32:00,30.5,15.9,30.09,WNW,292,0.0,0.0,54,0.00,,OVC,0.00,VWS V14.00,2013-01-02 14:32:00,
2013-01-02 09:37:00,30.7,15.6,30.09,West,270,0.0,0.0,53,0.00,,OVC,0.00,VWS V14.00,2013-01-02 14:37:00,
2013-01-02 09:42:00,31.2,15.6,30.09,West,270,0.0,0.0,52,0.00,,OVC,0.00,VWS V14.00,2013-01-02 14:42:00,
2013-01-02 09:47:00,31.4,15.4,30.09,ENE,68,0.0,0.0,51,0.00,,OVC,0.00,VWS V14.00,2013-01-02 14:47:00,
2013-01-02 09:52:00,31.6,15.6,30.10,NNE,22,0.0,0.0,51,0.00,,OVC,0.00,VWS V14.00,2013-01-02 14:52:00,
2013-01-02 09:57:00,31.8,15.3,30.10,NNE,22,0.0,0.0,50,0.00,,OVC,0.00,VWS V14.00,2013-01-02 14:57:00,
2013-01-02 10:02:00,31.8,15.3,30.10,NNE,22,0.0,0.0,50,0.00,,OVC,0.00,VWS V14.00,2013-01-02 15:02:00,
2013-01-02 10:07:00,32.1,15.6,30.09,NNW,338,2.6,2.6,50,0.00,,OVC,0.00,VWS V14.00,2013-01-02 15:07:00,
2013-01-02 10:12:00,32.5,16.4,30.10,WNW,292,0.0,0.0,51,0.00,,OVC,0.00,VWS V14.00,2013-01-02 15:12:00,
2013-01-02 10:17:00,32.7,15.2,30.10,WNW,292,0.0,0.0,48,0.00,,OVC,0.00,VWS V14.00,2013-01-02 15:17:00,
2013-01-02 10:22:00,32.9,14.9,30.10,North,0,6.7,6.7,47,0.00,,OVC,0.00,VWS V14.00,2013-01-02 15:22:00,
2013-01-02 10:27:00,32.7,15.2,30.11,NNE,22,0.0,0.0,48,0.00,,OVC,0.00,VWS V14.00,2013-01-02 15:27:00,
2013-01-02 10:32:00,33.4,15.8,30.10,North,0,0.0,0.0,48,0.00,,OVC,0.00,VWS V14.00,2013-01-02 15:32:00,
2013-01-02 10:37:00,34.3,17.1,30.10,West,270,0.6,0.6,49,0.00,,OVC,0.00,VWS V14.00,2013-01-02 15:37:00,
2013-01-02 10:42:00,34.8,16.6,30.10,ENE,68,2.4,2.4,47,0.00,,OVC,0.00,VWS V14.00,2013-01-02 15:42:00,
2013-01-02 10:47:00,35.0,17.3,30.09,NNE,22,3.8,3.8,48,0.00,,OVC,0.00,VWS V14.00,2013-01-02 15:47:00,
2013-01-02 10:52:00,35.2,17.0,30.09,North,0,6.0,6.0,47,0.00,,OVC,0.00,VWS V14.00,2013-01-02 15:52:00,
2013-01-02 10:57:00,35.4,16.7,30.09,NNE,22,7.6,7.6,46,0.00,,OVC,0.00,VWS V14.00,2013-01-02 15:57:00,
2013-01-02 11:02:00,35.2,17.0,30.08,NNE,22,4.6,4.6,47,0.00,,OVC,0.00,VWS V14.00,2013-01-02 16:02:00,
2013-01-02 11:07:00,35.2,16.5,30.08,NNW,338,0.0,0.0,46,0.00,,OVC,0.00,VWS V14.00,2013-01-02 16:07:00,
2013-01-02 11:12:00,35.4,16.7,30.08,SSW,202,1.5,1.5,46,0.00,,OVC,0.00,VWS V14.00,2013-01-02 16:12:00,
2013-01-02 11:17:00,35.7,17.0,30.08,NNE,22,0.4,0.4,46,0.00,,OVC,0.00,VWS V14.00,2013-01-02 16:17:00,
2013-01-02 11:22:00,35.7,16.5,30.08,West,270,0.0,0.0,45,0.00,,OVC,0.00,VWS V14.00,2013-01-02 16:22:00,
2013-01-02 11:27:00,35.7,17.0,30.08,NNW,338,7.8,7.8,46,0.00,,OVC,0.00,VWS V14.00,2013-01-02 16:27:00,
2013-01-02 11:32:00,35.2,16.5,30.07,WSW,248,0.0,0.0,46,0.00,,OVC,0.00,VWS V14.00,2013-01-02 16:32:00,
2013-01-02 11:37:00,35.2,16.5,30.07,WSW,248,0.0,0.0,46,0.00,,OVC,0.00,VWS V14.00,2013-01-02 16:37:00,
2013-01-02 11:42:00,34.8,16.1,30.07,West,270,0.0,0.0,46,0.00,,OVC,0.00,VWS V14.00,2013-01-02 16:42:00,
2013-01-02 11:47:00,35.2,16.5,30.07,NNE,22,6.2,6.2,46,0.00,,OVC,0.00,VWS V14.00,2013-01-02 16:47:00,
2013-01-02 11:52:00,35.2,16.5,30.05,SSW,202,2.9,2.9,46,0.00,,OVC,0.00,VWS V14.00,2013-01-02 16:52:00,
2013-01-02 11:57:00,35.7,16.5,30.05,NW,315,0.0,0.0,45,0.00,,OVC,0.00,VWS V14.00,2013-01-02 16:57:00,
2013-01-02 12:02:00,36.3,17.0,30.05,NNE,22,6.9,6.9,45,0.00,,OVC,0.00,VWS V14.00,2013-01-02 17:02:00,
2013-01-02 12:07:00,37.0,17.1,30.04,NNE,22,0.0,0.0,44,0.00,,OVC,0.00,VWS V14.00,2013-01-02 17:07:00,
2013-01-02 12:12:00,37.2,16.8,30.04,North,0,2.4,2.4,43,0.00,,OVC,0.00,VWS V14.00,2013-01-02 17:12:00,
2013-01-02 12:17:00,36.8,17.0,30.04,NNW,338,6.4,6.4,44,0.00,,OVC,0.00,VWS V14.00,2013-01-02 17:17:00,
2013-01-02 12:22:00,36.8,17.5,30.04,North,0,3.1,3.1,45,0.00,,OVC,0.00,VWS V14.00,2013-01-02 17:22:00,
2013-01-02 12:27:00,36.6,17.3,30.04,West,270,0.0,0.0,45,0.00,,OVC,0.00,VWS V14.00,2013-01-02 17:27:00,
2013-01-02 12:32:00,36.6,17.3,30.04,North,0,0.0,0.0,45,0.00,,OVC,0.00,VWS V14.00,2013-01-02 17:32:00,
2013-01-02 12:37:00,36.5,17.2,30.04,SW,225,0.0,0.0,45,0.00,,OVC,0.00,VWS V14.00,2013-01-02 17:37:00,
2013-01-02 12:42:00,36.5,17.2,30.04,WNW,292,0.8,0.8,45,0.00,,OVC,0.00,VWS V14.00,2013-01-02 17:42:00,
2013-01-02 12:47:00,36.6,17.3,30.04,North,0,7.8,7.8,45,0.00,,OVC,0.00,VWS V14.00,2013-01-02 17:47:00,
2013-01-02 12:52:00,37.0,17.6,30.04,WNW,292,4.6,4.6,45,0.00,,OVC,0.00,VWS V14.00,2013-01-02 17:52:00,
2013-01-02 12:57:00,37.2,17.8,30.03,West,270,2.9,2.9,45,0.00,,OVC,0.00,VWS V14.00,2013-01-02 17:57:00,
2013-01-02 13:02:00,37.4,18.0,30.03,West,270,0.0,0.0,45,0.00,,OVC,0.00,VWS V14.00,2013-01-02 18:02:00,
2013-01-02 13:07:00,37.2,17.8,30.04,WNW,292,10.7,10.7,45,0.00,,OVC,0.00,VWS V14.00,2013-01-02 18:07:00,
2013-01-02 13:12:00,37.0,18.2,30.04,NNE,22,7.3,7.3,46,0.00,,OVC,0.00,VWS V14.00,2013-01-02 18:12:00,
2013-01-02 13:17:00,36.5,17.2,30.04,NW,315,0.0,0.0,45,0.00,,OVC,0.00,VWS V14.00,2013-01-02 18:17:00,
2013-01-02 13:22:00,36.3,17.0,30.04,WNW,292,0.0,0.0,45,0.00,,OVC,0.00,VWS V14.00,2013-01-02 18:22:00,
2013-01-02 13:27:00,36.5,17.7,30.04,SE,135,2.6,2.6,46,0.00,,OVC,0.00,VWS V14.00,2013-01-02 18:27:00,
2013-01-02 13:32:00,36.3,17.0,30.04,West,270,0.0,0.0,45,0.00,,OVC,0.00,VWS V14.00,2013-01-02 18:32:00,
2013-01-02 13:37:00,36.3,18.0,30.04,WSW,248,0.0,0.0,47,0.00,,OVC,0.00,VWS V14.00,2013-01-02 18:37:00,
2013-01-02 13:42:00,36.5,17.7,30.03,West,270,1.7,1.7,46,0.00,,OVC,0.00,VWS V14.00,2013-01-02 18:42:00,
2013-01-02 13:47:00,36.3,17.5,30.04,NNW,338,5.1,5.1,46,0.00,,OVC,0.00,VWS V14.00,2013-01-02 18:47:00,
2013-01-02 13:52:00,35.7,17.0,30.04,WSW,248,0.0,0.0,46,0.00,,OVC,0.00,VWS V14.00,2013-01-02 18:52:00,
2013-01-02 13:57:00,35.7,17.5,30.04,West,270,0.0,0.0,47,0.00,,OVC,0.00,VWS V14.00,2013-01-02 18:57:00,
2013-01-02 14:02:00,35.9,17.6,30.05,West,270,5.3,5.3,47,0.00,,OVC,0.00,VWS V14.00,2013-01-02 19:02:00,
2013-01-02 14:07:00,36.1,17.8,30.05,West,270,0.0,0.0,47,0.00,,OVC,0.00,VWS V14.00,2013-01-02 19:07:00,
2013-01-02 14:12:00,36.3,18.0,30.05,West,270,4.6,4.6,47,0.00,,OVC,0.00,VWS V14.00,2013-01-02 19:12:00,
2013-01-02 14:17:00,36.3,17.5,30.05,North,0,7.3,7.3,46,0.00,,OVC,0.00,VWS V14.00,2013-01-02 19:17:00,
2013-01-02 14:22:00,36.1,17.8,30.04,NW,315,3.5,3.5,47,0.00,,OVC,0.00,VWS V14.00,2013-01-02 19:22:00,
2013-01-02 14:27:00,36.1,17.8,30.05,West,270,0.8,0.8,47,0.00,,OVC,0.00,VWS V14.00,2013-01-02 19:27:00,
2013-01-02 14:32:00,35.9,17.6,30.05,West,270,1.5,1.5,47,0.00,,OVC,0.00,VWS V14.00,2013-01-02 19:32:00,
2013-01-02 14:37:00,35.7,17.0,30.04,North,0,3.3,3.3,46,0.00,,OVC,0.00,VWS V14.00,2013-01-02 19:37:00,
2013-01-02 14:42:00,35.4,16.7,30.04,North,0,0.0,0.0,46,0.00,,OVC,0.00,VWS V14.00,2013-01-02 19:42:00,
2013-01-02 14:47:00,35.2,17.0,30.05,NNW,338,0.0,0.0,47,0.00,,OVC,0.00,VWS V14.00,2013-01-02 19:47:00,
2013-01-02 14:52:00,35.2,17.5,30.05,North,0,0.0,0.0,48,0.00,,OVC,0.00,VWS V14.00,2013-01-02 19:52:00,
2013-01-02 14:57:00,35.2,17.5,30.06,West,270,0.0,0.0,48,0.00,,OVC,0.00,VWS V14.00,2013-01-02 19:57:00,
2013-01-02 15:02:00,35.2,17.5,30.06,WSW,248,2.4,2.4,48,0.00,,OVC,0.00,VWS V14.00,2013-01-02 20:02:00,
2013-01-02 15:07:00,35.2,17.5,30.06,NNE,22,1.5,1.5,48,0.00,,OVC,0.00,VWS V14.00,2013-01-02 20:07:00,
2013-01-02 15:12:00,34.8,16.6,30.06,NW,315,0.0,0.0,47,0.00,,OVC,0.00,VWS V14.00,2013-01-02 20:12:00,
2013-01-02 15:17:00,34.7,17.0,30.06,North,0,0.0,0.0,48,0.00,,OVC,0.00,VWS V14.00,2013-01-02 20:17:00,
2013-01-02 15:22:00,34.5,16.9,30.06,WNW,292,0.0,0.0,48,0.00,,OVC,0.00,VWS V14.00,2013-01-02 20:22:00,
2013-01-02 15:27:00,34.3,16.7,30.06,WSW,248,0.0,0.0,48,0.00,,OVC,0.00,VWS V14.00,2013-01-02 20:27:00,
2013-01-02 15:32:00,34.3,17.1,30.06,NNW,338,2.6,4.4,49,0.00,,OVC,0.00,VWS V14.00,2013-01-02 20:32:00,
2013-01-02 15:37:00,34.3,17.1,30.06,WNW,292,0.0,0.0,49,0.00,,OVC,0.00,VWS V14.00,2013-01-02 20:37:00,
2013-01-02 15:42:00,34.1,17.0,30.07,WNW,292,3.5,3.5,49,0.00,,OVC,0.00,VWS V14.00,2013-01-02 20:42:00,
2013-01-02 15:47:00,33.9,16.8,30.06,West,270,0.0,0.0,49,0.00,,OVC,0.00,VWS V14.00,2013-01-02 20:47:00,
2013-01-02 15:52:00,33.9,16.8,30.07,NW,315,2.9,2.9,49,0.00,,OVC,0.00,VWS V14.00,2013-01-02 20:52:00,
2013-01-02 15:57:00,33.8,17.1,30.08,NW,315,0.0,0.0,50,0.00,,OVC,0.00,VWS V14.00,2013-01-02 20:57:00,
2013-01-02 16:02:00,33.6,17.0,30.08,WNW,292,0.0,0.0,50,0.00,,OVC,0.00,VWS V14.00,2013-01-02 21:02:00,
2013-01-02 16:07:00,33.6,17.0,30.08,North,0,0.4,0.4,50,0.00,,OVC,0.00,VWS V14.00,2013-01-02 21:07:00,
2013-01-02 16:12:00,33.2,16.6,30.08,NW,315,0.0,0.0,50,0.00,,OVC,0.00,VWS V14.00,2013-01-02 21:12:00,
2013-01-02 16:17:00,33.0,16.9,30.08,NNW,338,0.0,0.0,51,0.00,,OVC,0.00,VWS V14.00,2013-01-02 21:17:00,
2013-01-02 16:22:00,32.7,16.6,30.08,West,270,0.0,0.0,51,0.00,,OVC,0.00,VWS V14.00,2013-01-02 21:22:00,
2013-01-02 16:27:00,32.5,16.4,30.08,West,270,0.0,0.0,51,0.00,,OVC,0.00,VWS V14.00,2013-01-02 21:27:00,
2013-01-02 16:32:00,32.1,16.0,30.08,NNW,338,0.0,0.0,51,0.00,,OVC,0.00,VWS V14.00,2013-01-02 21:32:00,
2013-01-02 16:37:00,32.1,16.5,30.09,West,270,1.1,1.1,52,0.00,,OVC,0.00,VWS V14.00,2013-01-02 21:37:00,
2013-01-02 16:42:00,31.6,16.0,30.09,WNW,292,0.0,0.0,52,0.00,,OVC,0.00,VWS V14.00,2013-01-02 21:42:00,
2013-01-02 16:47:00,31.6,16.0,30.09,NNW,338,0.0,0.0,52,0.00,,OVC,0.00,VWS V14.00,2013-01-02 21:47:00,
2013-01-02 16:52:00,31.2,16.1,30.09,WNW,292,0.0,0.0,53,0.00,,OVC,0.00,VWS V14.00,2013-01-02 21:52:00,
2013-01-02 16:57:00,30.9,15.8,30.10,West,270,0.0,0.0,53,0.00,,OVC,0.00,VWS V14.00,2013-01-02 21:57:00,
2013-01-02 17:02:00,30.7,16.0,30.10,West,270,0.8,0.8,54,0.00,,OVC,0.00,VWS V14.00,2013-01-02 22:02:00,
2013-01-02 17:07:00,30.7,16.0,30.10,West,270,0.0,0.0,54,0.00,,OVC,0.00,VWS V14.00,2013-01-02 22:07:00,
2013-01-02 17:12:00,30.5,15.9,30.11,West,270,0.0,0.0,54,0.00,,OVC,0.00,VWS V14.00,2013-01-02 22:12:00,
2013-01-02 17:17:00,30.3,15.7,30.11,West,270,0.0,0.0,54,0.00,,OVC,0.00,VWS V14.00,2013-01-02 22:17:00,
2013-01-02 17:22:00,30.2,16.0,30.11,West,270,0.0,0.0,55,0.00,,OVC,0.00,VWS V14.00,2013-01-02 22:22:00,
2013-01-02 17:27:00,30.0,16.2,30.11,West,270,0.0,0.0,56,0.00,,OVC,0.00,VWS V14.00,2013-01-02 22:27:00,
2013-01-02 17:32:00,30.0,16.2,30.11,WSW,248,0.0,0.0,56,0.00,,OVC,0.00,VWS V14.00,2013-01-02 22:32:00,
2013-01-02 17:37:00,30.0,16.2,30.12,West,270,0.0,0.0,56,0.00,,OVC,0.00,VWS V14.00,2013-01-02 22:37:00,
2013-01-02 17:42:00,29.6,15.8,30.12,West,270,0.0,0.0,56,0.00,,OVC,0.00,VWS V14.00,2013-01-02 22:42:00,
2013-01-02 17:47:00,29.6,15.8,30.12,WNW,292,0.0,0.0,56,0.00,,OVC,0.00,VWS V14.00,2013-01-02 22:47:00,
2013-01-02 17:52:00,29.4,15.7,30.12,WNW,292,0.0,0.0,56,0.00,,OVC,0.00,VWS V14.00,2013-01-02 22:52:00,
2013-01-02 17:57:00,29.4,15.7,30.12,West,270,0.0,0.0,56,0.00,,OVC,0.00,VWS V14.00,2013-01-02 22:57:00,
2013-01-02 18:02:00,29.3,16.0,30.13,West,270,0.0,0.0,57,0.00,,OVC,0.00,VWS V14.00,2013-01-02 23:02:00,
2013-01-02 18:07:00,29.1,15.8,30.13,West,270,0.0,0.0,57,0.00,,OVC,0.00,VWS V14.00,2013-01-02 23:07:00,
2013-01-02 18:12:00,29.1,15.8,30.13,West,270,0.0,0.0,57,0.00,,OVC,0.00,VWS V14.00,2013-01-02 23:12:00,
2013-01-02 18:17:00,28.9,16.0,30.13,West,270,0.0,0.0,58,0.00,,OVC,0.00,VWS V14.00,2013-01-02 23:17:00,
2013-01-02 18:22:00,28.9,16.0,30.13,West,270,0.0,0.0,58,0.00,,OVC,0.00,VWS V14.00,2013-01-02 23:22:00,
2013-01-02 18:27:00,28.7,17.0,30.13,West,270,0.0,0.0,61,0.00,,OVC,0.00,VWS V14.00,2013-01-02 23:27:00,
2013-01-02 18:32:00,28.7,16.6,30.13,WSW,248,0.0,0.0,60,0.00,,OVC,0.00,VWS V14.00,2013-01-02 23:32:00,
2013-01-02 18:37:00,28.5,16.4,30.13,WSW,248,0.0,0.0,60,0.00,,OVC,0.00,VWS V14.00,2013-01-02 23:37:00,
2013-01-02 18:42:00,28.5,16.4,30.13,WSW,248,0.0,0.0,60,0.00,,OVC,0.00,VWS V14.00,2013-01-02 23:42:00,
2013-01-02 18:47:00,28.2,16.1,30.13,NW,315,0.0,0.0,60,0.00,,OVC,0.00,VWS V14.00,2013-01-02 23:47:00,
2013-01-02 18:52:00,28.2,16.1,30.13,West,270,0.0,0.0,60,0.00,,OVC,0.00,VWS V14.00,2013-01-02 23:52:00,
2013-01-02 18:57:00,28.2,16.5,30.13,West,270,0.0,0.0,61,0.00,,OVC,0.00,VWS V14.00,2013-01-02 23:57:00,
2013-01-02 19:02:00,28.2,16.5,30.13,NW,315,0.0,0.0,61,0.00,,OVC,0.00,VWS V14.00,2013-01-03 00:02:00,
2013-01-02 19:07:00,28.2,16.9,30.13,NW,315,0.0,0.0,62,0.00,,OVC,0.00,VWS V14.00,2013-01-03 00:07:00,
2013-01-02 19:12:00,28.2,17.6,30.13,West,270,0.0,0.0,64,0.00,,OVC,0.00,VWS V14.00,2013-01-03 00:12:00,
2013-01-02 19:17:00,28.2,17.6,30.14,WSW,248,0.0,0.0,64,0.00,,OVC,0.00,VWS V14.00,2013-01-03 00:17:00,
2013-01-02 19:22:00,28.0,17.0,30.14,WSW,248,0.0,0.0,63,0.00,,OVC,0.00,VWS V14.00,2013-01-03 00:22:00,
2013-01-02 19:27:00,28.0,17.4,30.15,WSW,248,0.0,0.0,64,0.00,,OVC,0.00,VWS V14.00,2013-01-03 00:27:00,
2013-01-02 19:32:00,28.0,17.8,30.15,WSW,248,0.0,0.0,65,0.00,,OVC,0.00,VWS V14.00,2013-01-03 00:32:00,
2013-01-02 19:38:00,28.0,18.1,30.15,WSW,248,0.0,0.0,66,0.00,,OVC,0.00,VWS V14.00,2013-01-03 00:38:00,
2013-01-02 19:43:00,27.8,17.6,30.14,WSW,248,0.0,0.0,65,0.00,,OVC,0.00,VWS V14.00,2013-01-03 00:43:00,
2013-01-02 19:48:00,27.6,17.7,30.14,WSW,248,0.0,0.0,66,0.00,,OVC,0.00,VWS V14.00,2013-01-03 00:48:00,
2013-01-02 19:53:00,27.6,17.7,30.15,WSW,248,0.0,0.0,66,0.00,,OVC,0.00,VWS V14.00,2013-01-03 00:53:00,
2013-01-02 19:58:00,27.6,17.7,30.15,WSW,248,0.0,0.0,66,0.00,,OVC,0.00,VWS V14.00,2013-01-03 00:58:00,
2013-01-02 20:03:00,27.6,17.7,30.14,WSW,248,0.0,0.0,66,0.00,,OVC,0.00,VWS V14.00,2013-01-03 01:03:00,
2013-01-02 20:08:00,27.5,17.6,30.15,WSW,248,0.0,0.0,66,0.00,,OVC,0.00,VWS V14.00,2013-01-03 01:08:00,
2013-01-02 20:13:00,27.5,18.0,30.15,WSW,248,0.0,0.0,67,0.00,,OVC,0.00,VWS V14.00,2013-01-03 01:13:00,
2013-01-02 20:18:00,27.3,18.1,30.14,WSW,248,0.0,0.0,68,0.00,,OVC,0.00,VWS V14.00,2013-01-03 01:18:00,
2013-01-02 20:23:00,27.3,18.1,30.14,WSW,248,0.0,0.0,68,0.00,,OVC,0.00,VWS V14.00,2013-01-03 01:23:00,
2013-01-02 20:28:00,27.3,18.1,30.14,WSW,248,0.0,0.0,68,0.00,,OVC,0.00,VWS V14.00,2013-01-03 01:28:00,
2013-01-02 20:33:00,27.1,17.6,30.14,WSW,248,0.0,0.0,67,0.00,,OVC,0.00,VWS V14.00,2013-01-03 01:33:00,
2013-01-02 20:38:00,27.1,18.0,30.15,WSW,248,0.0,0.0,68,0.00,,OVC,0.00,VWS V14.00,2013-01-03 01:38:00,
2013-01-02 20:43:00,27.1,18.0,30.14,WSW,248,0.0,0.0,68,0.00,,OVC,0.00,VWS V14.00,2013-01-03 01:43:00,
2013-01-02 20:48:00,26.9,18.1,30.15,WSW,248,0.0,0.0,69,0.00,,OVC,0.00,VWS V14.00,2013-01-03 01:48:00,
2013-01-02 20:53:00,26.9,18.1,30.16,WSW,248,0.0,0.0,69,0.00,,OVC,0.00,VWS V14.00,2013-01-03 01:53:00,
2013-01-02 20:58:00,26.9,18.1,30.15,WSW,248,0.0,0.0,69,0.00,,OVC,0.00,VWS V14.00,2013-01-03 01:58:00,
2013-01-02 21:03:00,26.9,18.1,30.15,WSW,248,0.0,0.0,69,0.00,,OVC,0.00,VWS V14.00,2013-01-03 02:03:00,
2013-01-02 21:08:00,26.7,17.9,30.16,WSW,248,0.0,0.0,69,0.00,,OVC,0.00,VWS V14.00,2013-01-03 02:08:00,
2013-01-02 21:13:00,26.7,17.9,30.16,WSW,248,0.0,0.0,69,0.00,,OVC,0.00,VWS V14.00,2013-01-03 02:13:00,
2013-01-02 21:18:00,26.7,17.9,30.16,West,270,0.0,0.0,69,0.00,,OVC,0.00,VWS V14.00,2013-01-03 02:18:00,
2013-01-02 21:23:00,26.7,17.9,30.16,NW,315,0.0,0.0,69,0.00,,OVC,0.00,VWS V14.00,2013-01-03 02:23:00,
2013-01-02 21:28:00,26.9,18.1,30.15,WNW,292,0.0,0.0,69,0.00,,OVC,0.00,VWS V14.00,2013-01-03 02:28:00,
2013-01-02 21:33:00,26.9,18.1,30.16,West,270,0.0,0.0,69,0.00,,OVC,0.00,VWS V14.00,2013-01-03 02:33:00,
2013-01-02 21:38:00,26.9,18.1,30.16,WSW,248,0.0,0.0,69,0.00,,OVC,0.00,VWS V14.00,2013-01-03 02:38:00,
2013-01-02 21:43:00,26.9,18.1,30.16,WSW,248,0.0,0.0,69,0.00,,OVC,0.00,VWS V14.00,2013-01-03 02:43:00,
2013-01-02 21:48:00,26.9,18.1,30.16,West,270,0.0,0.0,69,0.00,,OVC,0.00,VWS V14.00,2013-01-03 02:48:00,
2013-01-02 21:53:00,26.7,17.6,30.16,West,270,0.0,0.0,68,0.00,,OVC,0.00,VWS V14.00,2013-01-03 02:53:00,
2013-01-02 21:58:00,26.7,17.2,30.16,WNW,292,0.0,0.0,67,0.00,,OVC,0.00,VWS V14.00,2013-01-03 02:58:00,
2013-01-02 22:03:00,26.7,17.2,30.16,WSW,248,0.0,0.0,67,0.00,,OVC,0.00,VWS V14.00,2013-01-03 03:03:00,
2013-01-02 22:08:00,26.6,17.1,30.16,WSW,248,0.0,0.0,67,0.00,,OVC,0.00,VWS V14.00,2013-01-03 03:08:00,
2013-01-02 22:13:00,26.7,17.2,30.16,WNW,292,0.0,0.0,67,0.00,,OVC,0.00,VWS V14.00,2013-01-03 03:13:00,
2013-01-02 22:18:00,26.6,17.1,30.16,West,270,0.0,0.0,67,0.00,,OVC,0.00,VWS V14.00,2013-01-03 03:18:00,
2013-01-02 22:23:00,26.6,17.1,30.16,West,270,0.0,0.0,67,0.00,,OVC,0.00,VWS V14.00,2013-01-03 03:23:00,
2013-01-02 22:28:00,26.6,17.5,30.17,West,270,0.0,0.0,68,0.00,,OVC,0.00,VWS V14.00,2013-01-03 03:28:00,
2013-01-02 22:33:00,26.6,17.5,30.17,West,270,0.0,0.0,68,0.00,,OVC,0.00,VWS V14.00,2013-01-03 03:33:00,
2013-01-02 22:39:00,26.4,17.6,30.17,WNW,292,0.0,0.0,69,0.00,,OVC,0.00,VWS V14.00,2013-01-03 03:39:00,
2013-01-02 22:44:00,26.4,17.6,30.17,WSW,248,0.0,0.0,69,0.00,,OVC,0.00,VWS V14.00,2013-01-03 03:44:00,
2013-01-02 22:49:00,26.4,17.6,30.17,WSW,248,0.0,0.0,69,0.00,,OVC,0.00,VWS V14.00,2013-01-03 03:49:00,
2013-01-02 22:54:00,26.2,17.1,30.18,WSW,248,0.0,0.0,68,0.00,,OVC,0.00,VWS V14.00,2013-01-03 03:54:00,
2013-01-02 22:59:00,26.2,17.1,30.17,WNW,292,0.0,0.0,68,0.00,,OVC,0.00,VWS V14.00,2013-01-03 03:59:00,
2013-01-02 23:04:00,26.2,17.1,30.18,NW,315,0.0,0.0,68,0.00,,OVC,0.00,VWS V14.00,2013-01-03 04:04:00,
2013-01-02 23:09:00,26.2,17.1,30.18,WNW,292,0.0,0.0,68,0.00,,OVC,0.00,VWS V14.00,2013-01-03 04:09:00,
2013-01-02 23:14:00,26.2,17.1,30.18,NW,315,0.0,0.0,68,0.00,,OVC,0.00,VWS V14.00,2013-01-03 04:14:00,
2013-01-02 23:19:00,26.4,17.3,30.18,West,270,0.0,0.0,68,0.00,,OVC,0.00,VWS V14.00,2013-01-03 04:19:00,
2013-01-02 23:24:00,26.4,17.3,30.18,NNW,338,1.1,1.1,68,0.00,,OVC,0.00,VWS V14.00,2013-01-03 04:24:00,
2013-01-02 23:29:00,26.4,17.3,30.18,WNW,292,0.0,0.0,68,0.00,,OVC,0.00,VWS V14.00,2013-01-03 04:29:00,
2013-01-02 23:34:00,26.2,17.1,30.18,WNW,292,0.0,0.0,68,0.00,,OVC,0.00,VWS V14.00,2013-01-03 04:34:00,
2013-01-02 23:39:00,26.2,17.1,30.18,WNW,292,0.0,0.0,68,0.00,,OVC,0.00,VWS V14.00,2013-01-03 04:39:00,
2013-01-02 23:44:00,26.2,17.1,30.18,West,270,0.0,0.0,68,0.00,,OVC,0.00,VWS V14.00,2013-01-03 04:44:00,
2013-01-02 23:49:00,26.2,17.1,30.18,West,270,0.0,0.0,68,0.00,,OVC,0.00,VWS V14.00,2013-01-03 04:49:00,
2013-01-02 23:54:00,26.2,17.1,30.18,WNW,292,0.0,0.0,68,0.00,,OVC,0.00,VWS V14.00,2013-01-03 04:54:00,
2013-01-02 23:59:00,26.2,17.1,30.18,WNW,292,0.0,0.0,68,0.00,,OVC,0.00,VWS V14.00,2013-01-03 04:59:00,